SCOUT A DEB, 3214

Orbit data source: Space-Track

SCOUT A DEB, 3214 is space debris in LEO originally from a launch on Sat, 02 Mar 1968 UTC launched from the Air Force Western Test Range (AFWTR). Debris objects in space refer to the collection of defunct objects orbiting the Earth. Examples of debris include non-operational satellites, rocket bodies, and fragments generated from explosions, collisions, or faulty payload assembly.

Loading next visibility...
Identifier
3214, 1968-012D
Orbit
LEO
Country
Flag of USUS
Related business
Manufacturer
Unknown
Mission
Spacecraft
Bus & Motor
Unknown
Mass
Unknown
Launch date (UTC)
1968-03-02 (58 years ago)
Launch vehicle
Unknown
Launch site
Air Force Western Test Range (AFWTR)
Object type
Payload
Rocket body
Debris
Shape & HBR
Unknown shape, 0.1 m
Radar Cross Section
Small (<0.1 m²)

Expand to show TLE details & history
Last TLE update: 16 hours ago

TLE from 16 hours ago
0 SCOUT A DEB
1 03214U 68012D   25305.45807405  .00000261  00000-0  49436-3 0  9993
2 03214  89.8215 107.5213 0186101 172.3206 245.4247 13.29210982554281
Epoch: 2025-11-01T10:59Z
TLE epoch observation values (Epoch: 2025-11-01T10:59:37.597Z)
Latitude
55.91587°
Longitude
-98.11075°
Altitude
1,219.525 km
Speed
7.221 km/s
True Right ascension
07h 11m 08s
True Declination
55° 45' 57"
Sunlit
Object was in daylight at epoch
Visualization orbit readout
Latitude
Unknown
Longitude
Unknown
Altitude
Unknown
Speed
Unknown
Apparent Right ascension
Unknown
Apparent Declination
Unknown
Sunlit
N/A
Visualization observer readout
Local Sidereal Time
22:21:35
Azimuth
Unknown
Elevation
Unknown
Doppler factor
Unknown
Orbital elements
Apogee altitude
1,286.86 km
Perigee altitude
1,006.779 km
Semi-major axis
7,524.957 km
Eccentricity
0.01861
Inclination
89.8215°
RAAN
107.5213°
Arg. of periapsis
172.3206°
True anomaly
243.50427°
Mean anomaly
245.4247°
Eccentric anomaly
244.46259°
Mean motion
3.32497 °/min
Orbital period
108.27 mins
BSTAR
0.00049436
Loading maneuver chart data...
Computing Atmospheric mass density...
Loading historical data...
Loading historical data...
Loading historical data...
Loading historical data...
Loading historical data...
Loading historical data...
Loading historical data...

Documentation

Showing up to 5 results
|